sat.trackr.live / text

‹ back to catalog

QIANFAN-33

NORAD 61566 · 2024-185Q

PAYLOAD ACTIVE UNKNOWN

§ Identity

Operator
Country
PRC
Launch date
2024-10-15
Launch site
TAISC
Launch vehicle
Mass (kg)
RCS (m²)

External: N2YO · Heavens-Above · Gunter

§ Orbital elements

Epoch: 2026-05-25T02:43:40.401984Z

Period
103.10 min
Inclination
88.9831°
Eccentricity
0.0007483
Mean motion
13.96689040 rev/d
Perigee alt
899.8 km
Apogee alt
910.7 km
Semi-major
7,283.4 km
B*
2.3370e-4
RAAN
60.5805°
Arg perigee
157.6139°
Mean anomaly
202.5366°
Rev number
9,196

§ Raw data

QIANFAN-331 61566U 24185Q   26145.11366206  .00000337  00000+0  23370-3 0  99972 61566  88.9831  60.5805 0007483 157.6139 202.5366 13.96689040 91966

JSON: /api/v1/satellites/61566 · /tle

For live sub-satellite position, see the globe view (requires WebGL).

§ Visibility from observer

Set your observer location to see the next 7 days of passes ≥ 10°. The values pass through the URL so the page stays shareable.

No JS? Fill the form by hand. The geolocation button needs JavaScript.